Regional Weather Roundup
Issued by NWS Sioux Falls, SD

Home | Current Version | Previous Version | Text Only | Print | Product List | Glossary On
Versions: 1 2 3 4 5 6 7 8 9 10 11 12 13 14 15 16 17 18 19 20 21 22 23 24 25 26 27 28 29 30 31 32 33 34 35 36 37 38 39 40 41 42 43 44 45 46 47 48 49 50
000
ASUS43 KFSD 062302
RWRFSD

WEATHER ROUNDUP FOR SE SOUTH DAKOTA/SW MINNESOTA/NW IOWA
NATIONAL WEATHER SERVICE SIOUX FALLS SD
600 PM CDT WED MAY 06 2015

NOTE: "FAIR" INDICATES FEW OR NO CLOUDS BELOW 12,000 FEET WITH NO
SIGNIFICANT WEATHER AND OR OBSTRUCTIONS TO VISIBILITY.


SDZ038>040-050-052>070-070000-
SOUTHEAST SOUTH DAKOTA

CITY           SKY/WX    TMP DP  RH WIND       PRES   REMARKS
BROOKINGS      PTSUNNY   66  63  88 S20G25    29.71S
CHAMBERLAIN    NOT AVBL
HURON          MOSUNNY   71  61  70 S9G20     29.62F
MADISON        CLOUDY    66  66 100 S31G40    29.70S
MITCHELL       MOSUNNY   72  60  66 S26G38    29.64S
SIOUX FALLS    CLOUDY    66  61  84 S21G28    29.73S
WINNER         MOCLDY    64  56  75 SW5       29.60F
YANKTON        CLOUDY    68  61  77 S16G22    29.68S
$$

MNZ071-072-080-081-089-090-097-098-070000-
SOUTHWEST MINNESOTA

CITY           SKY/WX    TMP DP  RH WIND       PRES   REMARKS
FAIRMONT       PTSUNNY   73  46  38 S15       29.82S
JACKSON        CLOUDY    70  55  60 SW16G24   29.83S
LUVERNE        CLOUDY    68  61  77 SE16G24   29.76F
MARSHALL       PTSUNNY   70  57  64 S25G35    29.74R
MONTEVIDEO     PTSUNNY   73  57  56 SW26G36   29.72F
REDWOOD FALLS  PTSUNNY   76  59  55 S23G37    29.76S
TRACY          PTSUNNY   71  60  67 S24G38    29.77R
WORTHINGTON    PTSUNNY   66  57  72 S20       29.80F
$$

IAZ001>003-012>014-020>022-031-032-NEZ013-014-SDZ071-070000-
NORTHWEST IOWA

CITY           SKY/WX    TMP DP  RH WIND       PRES   REMARKS
DENISON        CLOUDY    70  61  73 S16G26    29.79R
ESTHERVILLE    CLOUDY    67  63  87 S12       29.82S
SIOUX CITY     CLOUDY    70  61  73 SE22G28   29.75S
SPENCER        CLOUDY    70  64  81 S15       29.81F
$$

ABBREVIATIONS USED IN REMARKS
   TC - TEMPERATURE IN CELSIUS
  WCI - WIND CHILL INDEX
   HX - HEAT INDEX
  VSB - VISIBILITY




USA.gov is the U.S. government's official web portal to all federal, state and local government web resources and services.